Private Wetterstation Wechselburg
Wetterdaten: Freitag, 22.03.2013
Datum Zeit Temp. +2m Bodentemp. Temp.+5cm Temp. Wind Windchill X Diff Temp. Feuchte +2m Feuchte +5cm Sonnenschein Luftdruck Regen Wind Richtung Richtung Sonnenschein UV Taupunkt Windchill Windben
22.03.2013 00:00 -3,5 C 7,9 C -2,1 C -2,8 C -2,8 C 0,7 C 90 % 92 % 0 % 1020,0 hPa 0,0 l/m 0,0 km/h (0 Bft) S-SW 202 0 min 0,0 UV-I -4,9 C -2,8 C 0,0 km/h (0 Bft)
22.03.2013 00:05 -3,5 C 7,9 C -1,9 C -2,8 C -2,8 C 0,7 C 90 % 92 % 0 % 1020,0 hPa 0,0 l/m 0,2 km/h (0 Bft) N-NO 22 0 min 0,0 UV-I -4,9 C -2,8 C 0,0 km/h (0 Bft)
22.03.2013 00:10 -3,3 C 7,9 C -2,0 C -2,7 C -2,7 C 0,6 C 90 % 92 % 0 % 1020,0 hPa 0,0 l/m 0,2 km/h (0 Bft) O 90 0 min 0,0 UV-I -4,7 C -2,7 C 0,0 km/h (0 Bft)
22.03.2013 00:15 -3,3 C 7,9 C -1,9 C -2,6 C -2,6 C 0,7 C 90 % 92 % 0 % 1020,3 hPa 0,0 l/m 0,5 km/h (0 Bft) W-SW 247 0 min 0,0 UV-I -4,7 C -2,6 C 2,1 km/h (1 Bft)
22.03.2013 00:20 -3,3 C 7,9 C -1,7 C -2,6 C -2,6 C 0,7 C 90 % 92 % 0 % 1020,3 hPa 0,0 l/m 0,8 km/h (0 Bft) NO 45 0 min 0,0 UV-I -4,7 C -2,6 C 0,0 km/h (0 Bft)
22.03.2013 00:25 -3,3 C 7,9 C -1,7 C -2,6 C -2,6 C 0,7 C 90 % 92 % 0 % 1020,3 hPa 0,0 l/m 0,5 km/h (0 Bft) SO 135 0 min 0,0 UV-I -4,7 C -2,6 C 0,0 km/h (0 Bft)
22.03.2013 00:30 -3,1 C 7,9 C -1,8 C -2,5 C -2,5 C 0,6 C 90 % 92 % 0 % 1020,3 hPa 0,0 l/m 0,2 km/h (0 Bft) N-NO 22 0 min 0,0 UV-I -4,5 C -2,5 C 0,0 km/h (0 Bft)
22.03.2013 00:35 -3,2 C 7,8 C -1,7 C -2,5 C -2,5 C 0,7 C 89 % 92 % 0 % 1020,1 hPa 0,0 l/m 0,3 km/h (0 Bft) W-SW 247 0 min 0,0 UV-I -4,7 C -2,5 C 0,0 km/h (0 Bft)
22.03.2013 00:41 -3,1 C 7,8 C -1,7 C -2,5 C -2,5 C 0,6 C 89 % 92 % 0 % 1020,1 hPa 0,0 l/m 0,2 km/h (0 Bft) N 0 0 min 0,0 UV-I -4,6 C -2,5 C 0,0 km/h (0 Bft)
22.03.2013 01:00 -2,9 C 7,8 C -1,7 C -2,5 C -2,5 C 0,4 C 89 % 92 % 0 % 1020,3 hPa 0,0 l/m 0,6 km/h (0 Bft) W 270 0 min 0,0 UV-I -4,5 C -2,5 C 1,6 km/h (1 Bft)
22.03.2013 01:05 -2,9 C 7,8 C -1,5 C -2,5 C -2,5 C 0,4 C 89 % 92 % 0 % 1020,3 hPa 0,0 l/m 1,0 km/h (0 Bft) N 360 0 min 0,0 UV-I -4,5 C -2,5 C 0,0 km/h (0 Bft)
22.03.2013 01:10 -2,9 C 7,8 C -1,6 C -2,5 C -2,5 C 0,4 C 89 % 92 % 0 % 1020,3 hPa 0,0 l/m 0,6 km/h (0 Bft) N 360 0 min 0,0 UV-I -4,5 C -2,5 C 0,0 km/h (0 Bft)
22.03.2013 01:15 -2,9 C 7,8 C -1,6 C -2,5 C -2,5 C 0,4 C 89 % 92 % 0 % 1020,2 hPa 0,0 l/m 0,0 km/h (0 Bft) NW 315 0 min 0,0 UV-I -4,5 C -2,5 C 0,0 km/h (0 Bft)
22.03.2013 01:20 -2,9 C 7,8 C -1,6 C -2,5 C -2,5 C 0,4 C 89 % 92 % 0 % 1020,2 hPa 0,0 l/m 0,0 km/h (0 Bft) N 360 0 min 0,0 UV-I -4,5 C -2,5 C 0,0 km/h (0 Bft)
22.03.2013 01:25 -2,9 C 7,8 C -1,7 C -2,6 C -2,6 C 0,3 C 89 % 92 % 0 % 1020,2 hPa 0,0 l/m 0,2 km/h (0 Bft) N 360 0 min 0,0 UV-I -4,5 C -2,6 C 1,9 km/h (1 Bft)
22.03.2013 01:30 -2,9 C 7,8 C -1,7 C -2,6 C -2,6 C 0,3 C 89 % 92 % 0 % 1020,2 hPa 0,0 l/m 0,2 km/h (0 Bft) NW 315 0 min 0,0 UV-I -4,5 C -2,6 C 0,0 km/h (0 Bft)
22.03.2013 01:35 -3,0 C 7,8 C -1,7 C -2,8 C -2,8 C 0,2 C 89 % 92 % 0 % 1020,8 hPa 0,0 l/m 0,2 km/h (0 Bft) N-NO 22 0 min 0,0 UV-I -4,6 C -2,8 C 0,0 km/h (0 Bft)
22.03.2013 01:40 -2,9 C 7,8 C -1,7 C -2,8 C -2,8 C 0,1 C 89 % 92 % 0 % 1020,8 hPa 0,0 l/m 0,2 km/h (0 Bft) N-NO 22 0 min 0,0 UV-I -4,5 C -2,8 C 0,0 km/h (0 Bft)
22.03.2013 01:45 -2,9 C 7,7 C -1,7 C -2,8 C -2,8 C 0,1 C 89 % 92 % 0 % 1020,8 hPa 0,0 l/m 0,0 km/h (0 Bft) NW 315 0 min 0,0 UV-I -4,5 C -2,8 C 0,0 km/h (0 Bft)
22.03.2013 01:50 -3,0 C 7,8 C -1,7 C -2,8 C -2,8 C 0,2 C 88 % 92 % 0 % 1020,8 hPa 0,0 l/m 0,0 km/h (0 Bft) W-NW 292 0 min 0,0 UV-I -4,7 C -2,8 C 0,0 km/h (0 Bft)
22.03.2013 01:55 -2,9 C 7,8 C -1,7 C -2,8 C -2,8 C 0,1 C 88 % 92 % 0 % 1020,8 hPa 0,0 l/m 0,0 km/h (0 Bft) SW 225 0 min 0,0 UV-I -4,6 C -2,8 C 0,0 km/h (0 Bft)
22.03.2013 02:00 -2,9 C 7,8 C -1,7 C -2,8 C -2,8 C 0,1 C 88 % 92 % 0 % 1020,8 hPa 0,0 l/m 0,0 km/h (0 Bft) W 270 0 min 0,0 UV-I -4,6 C -2,8 C 0,0 km/h (0 Bft)
22.03.2013 02:05 -2,9 C 7,8 C -1,7 C -2,8 C -2,8 C 0,1 C 88 % 92 % 0 % 1020,8 hPa 0,0 l/m 0,0 km/h (0 Bft) SW 225 0 min 0,0 UV-I -4,6 C -2,8 C 0,0 km/h (0 Bft)
22.03.2013 02:10 -2,9 C 7,8 C -1,7 C -2,8 C -2,8 C 0,1 C 88 % 92 % 0 % 1020,8 hPa 0,0 l/m 0,0 km/h (0 Bft) W-SW 247 0 min 0,0 UV-I -4,6 C -2,8 C 0,0 km/h (0 Bft)
22.03.2013 02:15 -2,9 C 7,8 C -1,7 C -2,8 C -2,8 C 0,1 C 88 % 92 % 0 % 1020,3 hPa 0,0 l/m 0,2 km/h (0 Bft) W-SW 247 0 min 0,0 UV-I -4,6 C -2,8 C 2,1 km/h (1 Bft)
22.03.2013 02:20 -2,9 C 7,8 C -1,7 C -2,8 C -2,8 C 0,1 C 88 % 92 % 0 % 1020,3 hPa 0,0 l/m 0,2 km/h (0 Bft) N-NW 337 0 min 0,0 UV-I -4,6 C -2,8 C 0,0 km/h (0 Bft)
22.03.2013 02:25 -2,9 C 7,7 C -1,7 C -2,8 C -2,8 C 0,1 C 88 % 92 % 0 % 1020,3 hPa 0,0 l/m 0,2 km/h (0 Bft) W-SW 247 0 min 0,0 UV-I -4,6 C -2,8 C 0,0 km/h (0 Bft)
22.03.2013 02:30 -2,9 C 7,7 C -1,7 C -2,8 C -2,8 C 0,1 C 88 % 92 % 0 % 1020,3 hPa 0,0 l/m 0,0 km/h (0 Bft) W-SW 247 0 min 0,0 UV-I -4,6 C -2,8 C 0,0 km/h (0 Bft)
22.03.2013 02:35 -2,9 C 7,7 C -1,7 C -2,7 C -2,7 C 0,2 C 87 % 92 % 0 % 1020,4 hPa 0,0 l/m 0,2 km/h (0 Bft) W 270 0 min 0,0 UV-I -4,8 C -2,7 C 0,0 km/h (0 Bft)
22.03.2013 02:40 -2,9 C 7,7 C -1,7 C -2,7 C -2,7 C 0,2 C 87 % 92 % 0 % 1020,4 hPa 0,0 l/m 0,5 km/h (0 Bft) S-SW 202 0 min 0,0 UV-I -4,8 C -2,7 C 3,2 km/h (1 Bft)
22.03.2013 02:45 -2,7 C 7,7 C -1,7 C -2,6 C -2,6 C 0,1 C 87 % 92 % 0 % 1020,4 hPa 0,0 l/m 0,8 km/h (0 Bft) W 270 0 min 0,0 UV-I -4,6 C -2,6 C 1,6 km/h (1 Bft)
22.03.2013 02:50 -2,7 C 7,7 C -1,7 C -2,6 C -2,6 C 0,1 C 87 % 92 % 0 % 1020,4 hPa 0,0 l/m 0,8 km/h (0 Bft) SW 225 0 min 0,0 UV-I -4,6 C -2,6 C 0,0 km/h (0 Bft)
22.03.2013 02:55 -2,7 C 7,7 C -1,7 C -2,5 C -2,5 C 0,2 C 87 % 92 % 0 % 1020,4 hPa 0,0 l/m 0,2 km/h (0 Bft) W-SW 247 0 min 0,0 UV-I -4,6 C -2,5 C 2,1 km/h (1 Bft)
22.03.2013 03:00 -2,7 C 7,7 C -1,7 C -2,5 C -2,5 C 0,2 C 86 % 92 % 0 % 1020,4 hPa 0,0 l/m 0,2 km/h (0 Bft) SW 225 0 min 0,0 UV-I -4,7 C -2,5 C 0,0 km/h (0 Bft)
22.03.2013 03:05 -2,5 C 7,7 C -1,7 C -2,4 C -2,4 C 0,1 C 86 % 91 % 0 % 1020,4 hPa 0,0 l/m 0,3 km/h (0 Bft) W-SW 247 0 min 0,0 UV-I -4,5 C -2,4 C 0,0 km/h (0 Bft)
22.03.2013 03:10 -2,5 C 7,7 C -1,7 C -2,4 C -2,4 C 0,1 C 86 % 92 % 0 % 1020,4 hPa 0,0 l/m 0,5 km/h (0 Bft) SW 225 0 min 0,0 UV-I -4,5 C -2,4 C 1,8 km/h (1 Bft)
22.03.2013 03:15 -2,5 C 7,6 C -1,7 C -2,4 C -2,4 C 0,1 C 86 % 91 % 0 % 1020,6 hPa 0,0 l/m 0,6 km/h (0 Bft) N 360 0 min 0,0 UV-I -4,5 C -2,4 C 0,0 km/h (0 Bft)
22.03.2013 03:20 -2,5 C 7,7 C -1,7 C -2,3 C -2,3 C 0,2 C 86 % 91 % 0 % 1020,6 hPa 0,0 l/m 0,3 km/h (0 Bft) NW 315 0 min 0,0 UV-I -4,5 C -2,3 C 0,0 km/h (0 Bft)
22.03.2013 03:25 -2,5 C 7,6 C -1,7 C -2,4 C -2,4 C 0,1 C 85 % 91 % 0 % 1020,6 hPa 0,0 l/m 0,0 km/h (0 Bft) SW 225 0 min 0,0 UV-I -4,7 C -2,4 C 4,3 km/h (1 Bft)
22.03.2013 03:30 -2,5 C 7,7 C -1,7 C -2,3 C -2,3 C 0,2 C 85 % 91 % 0 % 1020,6 hPa 0,0 l/m 0,3 km/h (0 Bft) O 90 0 min 0,0 UV-I -4,7 C -2,3 C 0,0 km/h (0 Bft)
22.03.2013 03:35 -2,5 C 7,7 C -1,7 C -2,4 C -2,4 C 0,1 C 85 % 91 % 0 % 1020,2 hPa 0,0 l/m 0,3 km/h (0 Bft) W-NW 292 0 min 0,0 UV-I -4,7 C -2,4 C 0,0 km/h (0 Bft)
22.03.2013 03:40 -2,5 C 7,7 C -1,7 C -2,4 C -2,4 C 0,1 C 85 % 91 % 0 % 1020,2 hPa 0,0 l/m 0,0 km/h (0 Bft) NW 315 0 min 0,0 UV-I -4,7 C -2,4 C 0,0 km/h (0 Bft)
22.03.2013 03:45 -2,5 C 7,7 C -1,7 C -2,4 C -2,4 C 0,1 C 85 % 91 % 0 % 1020,2 hPa 0,0 l/m 0,0 km/h (0 Bft) S 180 0 min 0,0 UV-I -4,7 C -2,4 C 0,0 km/h (0 Bft)
22.03.2013 03:50 -2,5 C 7,7 C -1,8 C -2,4 C -2,4 C 0,1 C 85 % 91 % 0 % 1020,2 hPa 0,0 l/m 0,2 km/h (0 Bft) N-NW 337 0 min 0,0 UV-I -4,7 C -2,4 C 0,0 km/h (0 Bft)
22.03.2013 03:55 -2,5 C 7,7 C -1,8 C -2,4 C -2,4 C 0,1 C 85 % 91 % 0 % 1020,4 hPa 0,0 l/m 0,3 km/h (0 Bft) S-SW 202 0 min 0,0 UV-I -4,7 C -2,4 C 1,6 km/h (1 Bft)
22.03.2013 04:00 -2,5 C 7,7 C -1,7 C -2,4 C -2,4 C 0,1 C 85 % 91 % 0 % 1020,4 hPa 0,0 l/m 0,3 km/h (0 Bft) N-NO 22 0 min 0,0 UV-I -4,7 C -2,4 C 0,0 km/h (0 Bft)
22.03.2013 04:05 -2,5 C 7,7 C -1,7 C -2,4 C -2,4 C 0,1 C 85 % 91 % 0 % 1020,4 hPa 0,0 l/m 0,2 km/h (0 Bft) NW 315 0 min 0,0 UV-I -4,7 C -2,4 C 0,0 km/h (0 Bft)
22.03.2013 04:10 -2,5 C 7,7 C -1,8 C -2,3 C -2,3 C 0,2 C 85 % 91 % 0 % 1020,4 hPa 0,0 l/m 1,0 km/h (0 Bft) N-NW 337 0 min 0,0 UV-I -4,7 C -2,3 C 2,4 km/h (1 Bft)
22.03.2013 04:15 -2,5 C 7,8 C -1,7 C -2,3 C -2,3 C 0,2 C 85 % 91 % 0 % 1020,6 hPa 0,0 l/m 1,8 km/h (1 Bft) N 360 0 min 0,0 UV-I -4,7 C -2,3 C 2,9 km/h (1 Bft)
22.03.2013 04:20 -2,5 C 7,7 C -1,7 C -2,3 C -2,3 C 0,2 C 85 % 91 % 0 % 1020,6 hPa 0,0 l/m 1,9 km/h (1 Bft) N-NO 22 0 min 0,0 UV-I -4,7 C -2,3 C 4,8 km/h (1 Bft)
22.03.2013 04:25 -2,5 C 7,8 C -1,7 C -2,3 C -2,3 C 0,2 C 85 % 91 % 0 % 1020,6 hPa 0,0 l/m 1,9 km/h (1 Bft) NW 315 0 min 0,0 UV-I -4,7 C -2,3 C 0,0 km/h (0 Bft)
22.03.2013 04:30 -2,6 C 7,8 C -1,7 C -2,4 C -2,4 C 0,2 C 86 % 91 % 0 % 1020,6 hPa 0,0 l/m 1,0 km/h (0 Bft) N-NO 22 0 min 0,0 UV-I -4,6 C -2,4 C 0,0 km/h (0 Bft)
22.03.2013 04:35 -2,5 C 7,8 C -1,9 C -2,4 C -2,4 C 0,1 C 86 % 91 % 0 % 1020,8 hPa 0,0 l/m 0,2 km/h (0 Bft) N 360 0 min 0,0 UV-I -4,5 C -2,4 C 2,9 km/h (1 Bft)
22.03.2013 04:40 -2,5 C 7,8 C -1,9 C -2,5 C -2,5 C 0,0 C 86 % 91 % 0 % 1020,8 hPa 0,0 l/m 0,2 km/h (0 Bft) SW 225 0 min 0,0 UV-I -4,5 C -2,5 C 0,0 km/h (0 Bft)
22.03.2013 04:45 -2,7 C 7,8 C -1,9 C -2,6 C -2,6 C 0,1 C 86 % 91 % 0 % 1020,8 hPa 0,0 l/m 0,8 km/h (0 Bft) W 270 0 min 0,0 UV-I -4,7 C -2,6 C 2,3 km/h (1 Bft)
22.03.2013 04:50 -2,7 C 7,8 C -1,9 C -2,6 C -2,6 C 0,1 C 86 % 91 % 0 % 1020,8 hPa 0,0 l/m 0,8 km/h (0 Bft) W 270 0 min 0,0 UV-I -4,7 C -2,6 C 0,0 km/h (0 Bft)
22.03.2013 04:55 -2,7 C 7,7 C -1,9 C -2,6 C -2,6 C 0,1 C 86 % 91 % 0 % 1020,5 hPa 0,0 l/m 0,5 km/h (0 Bft) N-NW 337 0 min 0,0 UV-I -4,7 C -2,6 C 0,0 km/h (0 Bft)
22.03.2013 05:00 -2,8 C 7,7 C -1,9 C -2,6 C -2,6 C 0,2 C 86 % 91 % 0 % 1020,5 hPa 0,0 l/m 0,5 km/h (0 Bft) N 360 0 min 0,0 UV-I -4,8 C -2,6 C 3,4 km/h (1 Bft)
22.03.2013 05:05 -2,8 C 7,7 C -2,0 C -2,6 C -2,6 C 0,2 C 86 % 91 % 0 % 1020,5 hPa 0,0 l/m 0,6 km/h (0 Bft) S-SO 157 0 min 0,0 UV-I -4,8 C -2,6 C 0,0 km/h (0 Bft)
22.03.2013 05:10 -2,7 C 7,7 C -2,1 C -2,7 C -2,7 C 0,0 C 86 % 91 % 0 % 1020,5 hPa 0,0 l/m 0,6 km/h (0 Bft) W-SW 247 0 min 0,0 UV-I -4,7 C -2,7 C 0,0 km/h (0 Bft)
22.03.2013 05:15 -2,9 C 7,7 C -2,1 C -2,9 C -2,9 C 0,0 C 86 % 91 % 0 % 1020,1 hPa 0,0 l/m 0,5 km/h (0 Bft) N-NW 337 0 min 0,0 UV-I -4,9 C -2,9 C 6,0 km/h (2 Bft)
22.03.2013 05:20 -2,9 C 7,7 C -2,3 C -2,9 C -3,0 C 0,0 C 86 % 91 % 0 % 1020,1 hPa 0,0 l/m 0,5 km/h (0 Bft) SW 225 0 min 0,0 UV-I -4,9 C -3,0 C 0,0 km/h (0 Bft)
22.03.2013 05:25 -2,9 C 7,7 C -2,1 C -2,9 C -3,0 C 0,0 C 85 % 91 % 0 % 1020,1 hPa 0,0 l/m 0,2 km/h (0 Bft) NO 45 0 min 0,0 UV-I -5,1 C -3,0 C 2,1 km/h (1 Bft)
22.03.2013 05:30 -2,9 C 7,7 C -2,1 C -2,9 C -3,0 C 0,0 C 85 % 91 % 0 % 1020,1 hPa 0,0 l/m 0,5 km/h (0 Bft) NW 315 0 min 0,0 UV-I -5,1 C -3,0 C 0,0 km/h (0 Bft)
22.03.2013 05:35 -2,9 C 7,7 C -2,1 C -2,9 C -3,0 C 0,0 C 85 % 91 % 0 % 1020,1 hPa 0,0 l/m 0,6 km/h (0 Bft) W-SW 247 0 min 0,0 UV-I -5,1 C -3,0 C 1,6 km/h (1 Bft)
22.03.2013 05:40 -2,9 C 7,7 C -2,1 C -2,9 C -2,9 C 0,0 C 85 % 91 % 0 % 1020,1 hPa 0,0 l/m 0,5 km/h (0 Bft) N-NW 337 0 min 0,0 UV-I -5,1 C -2,9 C 1,6 km/h (1 Bft)
22.03.2013 05:45 -2,9 C 7,7 C -2,1 C -2,9 C -2,9 C 0,0 C 85 % 91 % 0 % 1020,1 hPa 0,0 l/m 1,3 km/h (1 Bft) W-SW 247 0 min 0,0 UV-I -5,1 C -2,9 C 0,0 km/h (0 Bft)
22.03.2013 05:50 -2,9 C 7,7 C -2,1 C -2,9 C -2,9 C 0,0 C 85 % 91 % 0 % 1020,1 hPa 0,0 l/m 1,6 km/h (1 Bft) W-SW 247 0 min 0,0 UV-I -5,1 C -2,9 C 2,6 km/h (1 Bft)
22.03.2013 05:55 -3,1 C 7,7 C -2,3 C -3,0 C -3,0 C 0,1 C 85 % 91 % 0 % 1020,7 hPa 0,0 l/m 1,1 km/h (1 Bft) NW 315 0 min 0,0 UV-I -5,3 C -3,0 C 0,0 km/h (0 Bft)
22.03.2013 06:00 -3,1 C 7,7 C -2,3 C -3,0 C -3,0 C 0,1 C 85 % 91 % 0 % 1020,7 hPa 0,0 l/m 1,3 km/h (1 Bft) W-NW 292 0 min 0,0 UV-I -5,3 C -3,0 C 4,2 km/h (1 Bft)
22.03.2013 06:05 -3,1 C 7,7 C -2,5 C -3,1 C -3,1 C 0,0 C 85 % 91 % 0 % 1020,7 hPa 0,0 l/m 1,1 km/h (1 Bft) NW 315 0 min 0,0 UV-I -5,3 C -3,1 C 0,0 km/h (0 Bft)
22.03.2013 06:10 -3,1 C 7,7 C -2,5 C -3,1 C -3,2 C 0,0 C 85 % 91 % 0 % 1020,7 hPa 0,0 l/m 0,8 km/h (0 Bft) W-NW 292 0 min 0,0 UV-I -5,3 C -3,2 C 1,6 km/h (1 Bft)
22.03.2013 06:15 -3,1 C 7,7 C -2,5 C -3,2 C -3,3 C 0,0 C 84 % 91 % 0 % 1020,8 hPa 0,0 l/m 0,6 km/h (0 Bft) NW 315 0 min 0,0 UV-I -5,4 C -3,3 C 1,9 km/h (1 Bft)
22.03.2013 06:20 -3,2 C 7,6 C -2,5 C -3,2 C -3,2 C 0,0 C 85 % 91 % 0 % 1020,8 hPa 0,0 l/m 1,0 km/h (0 Bft) N-NW 337 0 min 0,0 UV-I -5,4 C -3,2 C 0,0 km/h (0 Bft)
22.03.2013 06:25 -3,2 C 7,7 C -2,5 C -3,2 C -3,2 C 0,0 C 84 % 91 % 0 % 1020,8 hPa 0,0 l/m 0,5 km/h (0 Bft) N-NW 337 0 min 0,0 UV-I -5,5 C -3,2 C 0,0 km/h (0 Bft)
22.03.2013 06:30 -3,2 C 7,7 C -2,5 C -3,1 C -3,1 C 0,1 C 84 % 91 % 3 % 1020,8 hPa 0,0 l/m 0,5 km/h (0 Bft) N 360 0 min 0,0 UV-I -5,5 C -3,1 C 2,4 km/h (1 Bft)
22.03.2013 06:35 -3,1 C 7,7 C -2,5 C -2,7 C -2,7 C 0,4 C 84 % 91 % 11 % 1020,6 hPa 0,0 l/m 1,0 km/h (0 Bft) N-NW 337 0 min 0,0 UV-I -5,4 C -2,7 C 0,0 km/h (0 Bft)
22.03.2013 06:46 -3,2 C 7,7 C -2,5 C -2,9 C -2,9 C 0,3 C 84 % 91 % 8 % 1020,6 hPa 0,0 l/m 1,6 km/h (1 Bft) N 0 0 min 0,0 UV-I -5,5 C -2,9 C 2,6 km/h (1 Bft)
22.03.2013 07:00 -3,2 C 7,7 C -2,3 C -2,7 C -2,7 C 0,5 C 84 % 91 % 13 % 1020,6 hPa 0,0 l/m 1,1 km/h (1 Bft) N-NW 337 0 min 0,0 UV-I -5,5 C -2,7 C 1,6 km/h (1 Bft)
22.03.2013 07:05 -3,2 C 7,7 C -2,3 C -2,7 C -2,7 C 0,5 C 84 % 91 % 13 % 1020,6 hPa 0,0 l/m 1,0 km/h (0 Bft) NW 315 0 min 0,0 UV-I -5,5 C -2,7 C 0,0 km/h (0 Bft)
22.03.2013 07:10 -3,2 C 7,7 C -2,3 C -2,6 C -2,6 C 0,6 C 84 % 91 % 16 % 1020,6 hPa 0,0 l/m 1,0 km/h (0 Bft) O-SO 112 0 min 0,0 UV-I -5,5 C -2,6 C 0,0 km/h (0 Bft)
22.03.2013 07:15 -3,2 C 7,6 C -2,3 C -2,6 C -2,6 C 0,6 C 84 % 90 % 16 % 1020,9 hPa 0,0 l/m 1,4 km/h (1 Bft) N-NO 22 0 min 0,0 UV-I -5,5 C -2,6 C 3,5 km/h (1 Bft)
22.03.2013 07:20 -3,1 C 7,6 C -2,1 C -2,5 C -2,5 C 0,6 C 84 % 90 % 16 % 1020,9 hPa 0,0 l/m 1,3 km/h (1 Bft) NW 315 0 min 0,0 UV-I -5,4 C -2,5 C 2,1 km/h (1 Bft)
22.03.2013 07:25 -3,1 C 7,6 C -2,1 C -2,3 C -2,3 C 0,8 C 84 % 90 % 21 % 1020,9 hPa 0,0 l/m 1,1 km/h (1 Bft) N 360 0 min 0,0 UV-I -5,4 C -2,3 C 0,0 km/h (0 Bft)
22.03.2013 07:30 -3,1 C 7,6 C -2,1 C -2,2 C -2,2 C 0,9 C 84 % 90 % 24 % 1020,9 hPa 0,0 l/m 1,3 km/h (1 Bft) W 270 0 min 0,0 UV-I -5,4 C -2,2 C 2,3 km/h (1 Bft)
22.03.2013 07:35 -2,9 C 7,6 C -1,9 C -2,0 C -2,0 C 0,9 C 84 % 90 % 24 % 1021,6 hPa 0,0 l/m 0,6 km/h (0 Bft) N 360 0 min 0,0 UV-I -5,2 C -2,0 C 2,1 km/h (1 Bft)
22.03.2013 07:40 -2,9 C 7,6 C -1,9 C -2,0 C -2,0 C 0,9 C 84 % 90 % 24 % 1021,6 hPa 0,0 l/m 0,5 km/h (0 Bft) NW 315 0 min 0,0 UV-I -5,2 C -2,0 C 2,4 km/h (1 Bft)
22.03.2013 07:45 -2,9 C 7,6 C -1,7 C -1,8 C -1,8 C 1,1 C 84 % 90 % 29 % 1021,6 hPa 0,0 l/m 0,3 km/h (0 Bft) S-SO 157 0 min 0,0 UV-I -5,2 C -1,8 C 0,0 km/h (0 Bft)
22.03.2013 07:50 -2,8 C 7,6 C -1,7 C -1,6 C -1,6 C 1,2 C 84 % 90 % 32 % 1021,6 hPa 0,0 l/m 0,5 km/h (0 Bft) W-SW 247 0 min 0,0 UV-I -5,1 C -1,6 C 6,6 km/h (2 Bft)
22.03.2013 07:55 -2,7 C 7,6 C -1,5 C -1,6 C -1,6 C 1,1 C 83 % 90 % 29 % 1021,8 hPa 0,0 l/m 1,1 km/h (1 Bft) NW 315 0 min 0,0 UV-I -5,2 C -1,6 C 0,0 km/h (0 Bft)
22.03.2013 08:00 -2,7 C 7,6 C -1,5 C -1,5 C -1,5 C 1,2 C 83 % 90 % 32 % 1021,8 hPa 0,0 l/m 1,3 km/h (1 Bft) N-NW 337 0 min 0,0 UV-I -5,2 C -1,5 C 4,0 km/h (1 Bft)
22.03.2013 08:05 -2,7 C 7,6 C -1,3 C -1,5 C -1,5 C 1,2 C 83 % 90 % 32 % 1021,8 hPa 0,0 l/m 1,0 km/h (0 Bft) W-SW 247 0 min 0,0 UV-I -5,2 C -1,5 C 1,6 km/h (1 Bft)
22.03.2013 08:10 -2,5 C 7,6 C -1,3 C -1,3 C -1,3 C 1,2 C 84 % 90 % 32 % 1021,8 hPa 0,0 l/m 1,1 km/h (1 Bft) W 270 0 min 0,0 UV-I -4,8 C -1,3 C 2,6 km/h (1 Bft)
22.03.2013 08:15 -2,5 C 7,6 C -1,1 C -1,1 C -1,1 C 1,4 C 83 % 90 % 37 % 1021,9 hPa 0,0 l/m 0,8 km/h (0 Bft) W-SW 247 0 min 0,0 UV-I -5,0 C -1,1 C 1,6 km/h (1 Bft)
22.03.2013 08:20 -2,3 C 7,6 C -1,1 C -1,0 C -1,0 C 1,3 C 83 % 90 % 34 % 1021,9 hPa 0,0 l/m 1,1 km/h (1 Bft) N 360 0 min 0,0 UV-I -4,8 C -1,0 C 2,7 km/h (1 Bft)
22.03.2013 08:25 -2,5 C 7,6 C -1,3 C -1,1 C -1,1 C 1,4 C 83 % 90 % 37 % 1021,9 hPa 0,0 l/m 1,6 km/h (1 Bft) N-NW 337 0 min 0,0 UV-I -5,0 C -1,1 C 0,0 km/h (0 Bft)
22.03.2013 08:30 -2,5 C 7,6 C -1,3 C -1,2 C -1,2 C 1,3 C 83 % 90 % 34 % 1021,9 hPa 0,0 l/m 1,9 km/h (1 Bft) N-NW 337 0 min 0,0 UV-I -5,0 C -1,2 C 3,4 km/h (1 Bft)
22.03.2013 08:35 -2,5 C 7,6 C -1,5 C -1,4 C -1,4 C 1,1 C 83 % 90 % 29 % 1021,9 hPa 0,0 l/m 1,9 km/h (1 Bft) N 360 0 min 0,0 UV-I -5,0 C -1,4 C 4,3 km/h (1 Bft)
22.03.2013 08:40 -2,6 C 7,7 C -1,3 C -1,9 C -1,9 C 0,7 C 83 % 89 % 18 % 1021,9 hPa 0,0 l/m 2,7 km/h (1 Bft) N-NW 337 0 min 0,0 UV-I -5,1 C -1,9 C 5,3 km/h (1 Bft)
22.03.2013 08:45 -2,7 C 7,7 C -1,5 C -2,8 C -3,0 C 0,0 C 83 % 89 % 0 % 1021,9 hPa 0,0 l/m 4,2 km/h (1 Bft) N-NO 22 0 min 0,0 UV-I -5,2 C -3,0 C 9,0 km/h (2 Bft)
22.03.2013 08:50 -2,8 C 7,6 C -1,3 C -2,9 C -3,1 C 0,0 C 83 % 89 % 0 % 1021,9 hPa 0,0 l/m 4,5 km/h (1 Bft) N-NO 22 0 min 0,0 UV-I -5,3 C -3,1 C 7,1 km/h (2 Bft)
22.03.2013 08:55 -2,9 C 7,7 C -1,3 C -2,9 C -2,9 C 0,0 C 83 % 89 % 0 % 1021,5 hPa 0,0 l/m 4,3 km/h (1 Bft) NW 315 0 min 0,0 UV-I -5,4 C -2,9 C 10,0 km/h (2 Bft)
22.03.2013 09:00 -3,0 C 7,7 C -1,5 C -2,9 C -2,9 C 0,1 C 84 % 88 % 3 % 1021,5 hPa 0,0 l/m 4,2 km/h (1 Bft) NW 315 0 min 0,0 UV-I -5,3 C -2,9 C 2,7 km/h (1 Bft)
22.03.2013 09:05 -3,1 C 7,6 C -1,7 C -3,1 C -3,2 C 0,0 C 83 % 88 % 0 % 1021,5 hPa 0,0 l/m 4,3 km/h (1 Bft) N 360 0 min 0,0 UV-I -5,6 C -3,2 C 12,1 km/h (2 Bft)
22.03.2013 09:10 -3,3 C 7,6 C -1,7 C -3,4 C -3,7 C 0,0 C 83 % 88 % 0 % 1021,5 hPa 0,0 l/m 5,0 km/h (1 Bft) N-NW 337 0 min 0,0 UV-I -5,8 C -5,8 C 8,0 km/h (2 Bft)
22.03.2013 09:15 -3,4 C 7,6 C -1,7 C -3,6 C -3,9 C 0,0 C 83 % 88 % 0 % 1021,5 hPa 0,0 l/m 5,1 km/h (1 Bft) N-NO 22 0 min 0,0 UV-I -5,9 C -6,1 C 9,0 km/h (2 Bft)
22.03.2013 09:20 -3,3 C 7,6 C -1,7 C -3,5 C -3,8 C 0,0 C 83 % 87 % 0 % 1021,5 hPa 0,0 l/m 4,8 km/h (1 Bft) N 360 0 min 0,0 UV-I -5,8 C -5,8 C 6,9 km/h (2 Bft)
22.03.2013 09:25 -3,3 C 7,6 C -1,7 C -3,4 C -3,7 C 0,0 C 83 % 87 % 0 % 1021,5 hPa 0,0 l/m 4,8 km/h (1 Bft) NW 315 0 min 0,0 UV-I -5,8 C -5,7 C 4,5 km/h (1 Bft)
22.03.2013 09:30 -3,3 C 7,6 C -1,7 C -3,5 C -3,9 C 0,0 C 83 % 87 % 0 % 1021,5 hPa 0,0 l/m 5,3 km/h (1 Bft) N 360 0 min 0,0 UV-I -5,8 C -6,2 C 7,4 km/h (2 Bft)
22.03.2013 09:35 -3,3 C 7,6 C -1,9 C -3,2 C -3,2 C 0,1 C 83 % 87 % 3 % 1021,8 hPa 0,0 l/m 4,0 km/h (1 Bft) N-NO 22 0 min 0,0 UV-I -5,8 C -3,2 C 5,3 km/h (1 Bft)
22.03.2013 09:40 -3,4 C 7,6 C -1,9 C -2,1 C -2,1 C 1,3 C 83 % 87 % 34 % 1021,8 hPa 0,0 l/m 2,4 km/h (1 Bft) N-NW 337 0 min 0,0 UV-I -5,9 C -2,1 C 0,0 km/h (0 Bft)
22.03.2013 09:45 -3,3 C 7,6 C -1,9 C -1,8 C -1,8 C 1,5 C 83 % 87 % 39 % 1021,8 hPa 0,0 l/m 1,4 km/h (1 Bft) SO 135 0 min 0,0 UV-I -5,8 C -1,8 C 0,0 km/h (0 Bft)
22.03.2013 09:50 -3,3 C 7,6 C -1,7 C -1,7 C -1,7 C 1,6 C 83 % 88 % 42 % 1021,8 hPa 0,0 l/m 1,1 km/h (1 Bft) W 270 0 min 0,0 UV-I -5,8 C -1,7 C 0,0 km/h (0 Bft)
22.03.2013 09:55 -3,3 C 7,6 C -1,7 C -1,4 C -1,4 C 1,9 C 83 % 88 % 50 % 1021,8 hPa 0,0 l/m 1,1 km/h (1 Bft) W 270 0 min 0,0 UV-I -5,8 C -1,4 C 0,0 km/h (0 Bft)
22.03.2013 10:00 -3,2 C 7,6 C -1,3 C -1,2 C -1,2 C 2,0 C 84 % 88 % 53 % 1021,8 hPa 0,0 l/m 1,0 km/h (0 Bft) N-NO 22 0 min 0,0 UV-I -5,5 C -1,2 C 0,0 km/h (0 Bft)
22.03.2013 10:05 -3,0 C 7,6 C -1,2 C -0,8 C -0,8 C 2,2 C 83 % 88 % 58 % 1021,8 hPa 0,0 l/m 0,3 km/h (0 Bft) N-NW 337 0 min 0,0 UV-I -5,5 C -0,8 C 1,9 km/h (1 Bft)
22.03.2013 10:10 -2,9 C 7,6 C -1,2 C -0,6 C -0,6 C 2,3 C 83 % 88 % 61 % 1021,8 hPa 0,0 l/m 0,6 km/h (0 Bft) NW 315 0 min 0,0 UV-I -5,4 C -0,6 C 1,8 km/h (1 Bft)
22.03.2013 10:15 -2,7 C 7,6 C -1,1 C -0,4 C -0,4 C 2,3 C 81 % 87 % 61 % 1022,1 hPa 0,0 l/m 1,8 km/h (1 Bft) O 90 0 min 0,0 UV-I -5,5 C -0,4 C 2,6 km/h (1 Bft)
22.03.2013 10:20 -2,7 C 7,6 C -1,0 C -0,3 C -0,3 C 2,4 C 82 % 87 % 63 % 1022,1 hPa 0,0 l/m 1,6 km/h (1 Bft) NW 315 0 min 0,1 UV-I -5,3 C -0,3 C 0,0 km/h (0 Bft)
22.03.2013 10:25 -2,5 C 7,5 C -0,9 C 0,0 C 0,0 C 2,5 C 80 % 86 % 66 % 1022,1 hPa 0,0 l/m 2,1 km/h (1 Bft) NO 45 0 min 0,1 UV-I -5,5 C 0,0 C 1,9 km/h (1 Bft)
22.03.2013 10:30 -2,5 C 7,5 C -0,7 C 0,2 C 0,2 C 2,7 C 81 % 86 % 71 % 1022,1 hPa 0,0 l/m 1,6 km/h (1 Bft) N 360 0 min 0,2 UV-I -5,3 C 0,2 C 0,0 km/h (0 Bft)
22.03.2013 10:35 -2,5 C 7,5 C -0,7 C 0,3 C 0,3 C 2,8 C 80 % 86 % 74 % 1021,2 hPa 0,0 l/m 1,0 km/h (0 Bft) NW 315 0 min 0,4 UV-I -5,5 C 0,3 C 0,0 km/h (0 Bft)
22.03.2013 10:40 -2,4 C 7,5 C -0,4 C 0,6 C 0,6 C 3,0 C 81 % 86 % 79 % 1021,2 hPa 0,0 l/m 1,0 km/h (0 Bft) NO 45 0 min 0,4 UV-I -5,2 C 0,6 C 0,0 km/h (0 Bft)
22.03.2013 10:45 -2,1 C 7,5 C -0,5 C 0,6 C 0,6 C 2,7 C 80 % 86 % 71 % 1021,2 hPa 0,0 l/m 1,6 km/h (1 Bft) N-NO 22 0 min 0,5 UV-I -5,1 C 0,6 C 3,1 km/h (1 Bft)
22.03.2013 10:50 -2,1 C 7,4 C -0,5 C 0,6 C 0,6 C 2,7 C 80 % 86 % 71 % 1021,2 hPa 0,0 l/m 1,9 km/h (1 Bft) S-SW 202 0 min 0,5 UV-I -5,1 C 0,6 C 3,7 km/h (1 Bft)
22.03.2013 10:55 -2,1 C 7,4 C -0,7 C 0,3 C 0,3 C 2,4 C 79 % 84 % 63 % 1021,3 hPa 0,0 l/m 2,6 km/h (1 Bft) N-NW 337 0 min 0,5 UV-I -5,2 C 0,3 C 3,1 km/h (1 Bft)
22.03.2013 11:00 -2,3 C 7,4 C -0,5 C 0,1 C 0,1 C 2,4 C 79 % 84 % 63 % 1021,3 hPa 0,0 l/m 2,7 km/h (1 Bft) O 90 0 min 0,5 UV-I -5,4 C 0,1 C 2,6 km/h (1 Bft)
22.03.2013 11:05 -2,4 C 7,4 C -0,7 C 0,2 C 0,2 C 2,6 C 79 % 84 % 68 % 1021,3 hPa 0,0 l/m 1,9 km/h (1 Bft) O-SO 112 0 min 0,4 UV-I -5,5 C 0,2 C 1,9 km/h (1 Bft)
22.03.2013 11:10 -2,3 C 7,5 C -0,5 C 0,3 C 0,3 C 2,6 C 79 % 85 % 68 % 1021,3 hPa 0,0 l/m 1,3 km/h (1 Bft) W 270 0 min 0,4 UV-I -5,4 C 0,3 C 0,0 km/h (0 Bft)
22.03.2013 11:15 -1,9 C 7,5 C -0,4 C 0,7 C 0,7 C 2,6 C 80 % 85 % 68 % 1021,6 hPa 0,0 l/m 0,3 km/h (0 Bft) N-NW 337 0 min 0,5 UV-I -4,9 C 0,7 C 0,0 km/h (0 Bft)
22.03.2013 11:20 -1,9 C 7,5 C -0,5 C 0,6 C 0,6 C 2,5 C 79 % 84 % 66 % 1021,6 hPa 0,0 l/m 1,1 km/h (1 Bft) O 90 0 min 0,4 UV-I -5,0 C 0,6 C 2,7 km/h (1 Bft)
22.03.2013 11:25 -2,1 C 7,4 C -0,7 C -0,2 C -0,2 C 1,9 C 78 % 84 % 50 % 1021,6 hPa 0,0 l/m 2,9 km/h (1 Bft) O 90 0 min 0,5 UV-I -5,4 C -0,2 C 4,2 km/h (1 Bft)
22.03.2013 11:30 -2,3 C 7,4 C -0,7 C -0,6 C -0,6 C 1,7 C 78 % 84 % 45 % 1021,6 hPa 0,0 l/m 2,9 km/h (1 Bft) O 90 0 min 0,4 UV-I -5,6 C -0,6 C 2,4 km/h (1 Bft)
22.03.2013 11:35 -2,1 C 7,4 C -0,7 C -0,2 C -0,2 C 1,9 C 79 % 84 % 50 % 1021,4 hPa 0,0 l/m 2,3 km/h (1 Bft) O-NO 67 0 min 0,4 UV-I -5,2 C -0,2 C 2,9 km/h (1 Bft)
22.03.2013 11:40 -2,1 C 7,5 C -0,7 C -0,2 C -0,2 C 1,9 C 79 % 84 % 50 % 1021,4 hPa 0,0 l/m 1,9 km/h (1 Bft) N-NW 337 0 min 0,4 UV-I -5,2 C -0,2 C 2,7 km/h (1 Bft)
22.03.2013 11:45 -2,1 C 7,4 C -0,7 C -0,4 C -0,4 C 1,7 C 79 % 84 % 45 % 1021,4 hPa 0,0 l/m 2,6 km/h (1 Bft) O-NO 67 0 min 0,4 UV-I -5,2 C -0,4 C 3,4 km/h (1 Bft)
22.03.2013 11:50 -2,3 C 7,4 C -0,9 C -0,8 C -0,8 C 1,5 C 79 % 84 % 39 % 1021,4 hPa 0,0 l/m 2,7 km/h (1 Bft) O-SO 112 0 min 0,3 UV-I -5,4 C -0,8 C 3,2 km/h (1 Bft)
22.03.2013 11:55 -2,3 C 7,4 C -0,9 C -0,6 C -0,6 C 1,7 C 80 % 84 % 45 % 1021,5 hPa 0,0 l/m 2,3 km/h (1 Bft) NW 315 0 min 0,3 UV-I -5,3 C -0,6 C 0,0 km/h (0 Bft)
22.03.2013 12:00 -2,1 C 7,4 C -0,9 C -0,4 C -0,4 C 1,7 C 80 % 85 % 45 % 1021,5 hPa 0,0 l/m 1,3 km/h (1 Bft) N-NO 22 0 min 0,3 UV-I -5,1 C -0,4 C 0,0 km/h (0 Bft)
22.03.2013 12:05 -2,1 C 7,5 C -0,7 C -0,3 C -0,3 C 1,8 C 80 % 85 % 47 % 1021,5 hPa 0,0 l/m 1,0 km/h (0 Bft) N-NO 22 0 min 0,3 UV-I -5,1 C -0,3 C 1,8 km/h (1 Bft)
22.03.2013 12:10 -2,0 C 7,5 C -0,5 C 0,0 C 0,0 C 2,0 C 80 % 85 % 53 % 1021,5 hPa 0,0 l/m 1,0 km/h (0 Bft) O-NO 67 0 min 0,3 UV-I -5,0 C 0,0 C 1,8 km/h (1 Bft)
22.03.2013 12:15 -1,9 C 7,5 C -0,5 C 0,2 C 0,2 C 2,1 C 79 % 85 % 55 % 1022,0 hPa 0,0 l/m 1,1 km/h (1 Bft) O-NO 67 0 min 0,5 UV-I -5,0 C 0,2 C 3,2 km/h (1 Bft)
22.03.2013 12:20 -1,9 C 7,5 C -0,5 C 0,3 C 0,3 C 2,2 C 79 % 84 % 58 % 1022,0 hPa 0,0 l/m 1,3 km/h (1 Bft) N-NW 337 0 min 0,5 UV-I -5,0 C 0,3 C 0,0 km/h (0 Bft)
22.03.2013 12:25 -1,9 C 7,4 C -0,5 C 0,3 C 0,3 C 2,2 C 78 % 84 % 58 % 1022,0 hPa 0,0 l/m 2,1 km/h (1 Bft) O-NO 67 0 min 0,5 UV-I -5,2 C 0,3 C 3,4 km/h (1 Bft)
22.03.2013 12:30 -2,0 C 7,4 C -0,5 C 0,2 C 0,2 C 2,2 C 78 % 84 % 58 % 1022,0 hPa 0,0 l/m 2,4 km/h (1 Bft) O-NO 67 0 min 0,5 UV-I -5,3 C 0,2 C 2,9 km/h (1 Bft)
22.03.2013 12:35 -1,9 C 7,4 C -0,5 C 0,2 C 0,2 C 2,1 C 79 % 84 % 55 % 1021,9 hPa 0,0 l/m 1,8 km/h (1 Bft) N-NO 22 0 min 0,4 UV-I -5,0 C 0,2 C 0,0 km/h (0 Bft)
22.03.2013 12:41 -1,8 C 7,4 C -0,5 C 0,4 C 0,4 C 2,2 C 79 % 84 % 58 % 1021,9 hPa 0,0 l/m 1,0 km/h (0 Bft) N 0 0 min 0,4 UV-I -4,9 C 0,4 C 0,0 km/h (0 Bft)
22.03.2013 13:00 -1,7 C 7,4 C -0,4 C 0,2 C 0,2 C 1,9 C 79 % 84 % 50 % 1021,3 hPa 0,0 l/m 2,3 km/h (1 Bft) W 270 0 min 0,4 UV-I -4,8 C 0,2 C 2,6 km/h (1 Bft)
22.03.2013 13:05 -1,7 C 7,5 C 0,1 C 0,7 C 0,7 C 2,4 C 79 % 85 % 63 % 1021,3 hPa 0,0 l/m 1,6 km/h (1 Bft) W-SW 247 0 min 0,6 UV-I -4,8 C 0,7 C 0,0 km/h (0 Bft)
22.03.2013 13:10 -1,5 C 7,5 C 0,8 C 1,2 C 1,2 C 2,7 C 79 % 85 % 71 % 1021,3 hPa 0,0 l/m 1,4 km/h (1 Bft) N-NO 22 0 min 1,0 UV-I -4,7 C 1,2 C 0,0 km/h (0 Bft)
22.03.2013 13:15 -0,9 C 7,5 C 1,2 C 2,8 C 2,8 C 3,7 C 79 % 85 % 97 % 1021,3 hPa 0,0 l/m 0,3 km/h (0 Bft) W-SW 247 5 min 1,0 UV-I -4,1 C 2,8 C 0,0 km/h (0 Bft)
22.03.2013 13:20 -0,6 C 7,5 C 1,3 C 3,6 C 3,6 C 4,2 C 79 % 86 % 100 % 1021,3 hPa 0,0 l/m 0,5 km/h (0 Bft) O-NO 67 5 min 1,1 UV-I -3,8 C 3,6 C 2,3 km/h (1 Bft)
22.03.2013 13:25 -0,8 C 7,5 C 0,7 C 3,1 C 3,1 C 3,9 C 75 % 84 % 100 % 1021,3 hPa 0,0 l/m 1,1 km/h (1 Bft) O-NO 67 5 min 0,7 UV-I -4,7 C 3,1 C 2,6 km/h (1 Bft)
22.03.2013 13:30 -1,1 C 7,4 C 0,5 C 2,4 C 2,4 C 3,5 C 75 % 84 % 92 % 1021,3 hPa 0,0 l/m 1,9 km/h (1 Bft) O 90 5 min 0,5 UV-I -5,0 C 2,4 C 1,6 km/h (1 Bft)
22.03.2013 13:35 -1,3 C 7,4 C 0,4 C 1,9 C 1,9 C 3,2 C 75 % 83 % 84 % 1021,3 hPa 0,0 l/m 1,8 km/h (1 Bft) N-NO 22 0 min 0,5 UV-I -5,1 C 1,9 C 0,0 km/h (0 Bft)
22.03.2013 13:40 -1,3 C 7,5 C 0,2 C 1,6 C 1,6 C 2,9 C 76 % 84 % 76 % 1021,3 hPa 0,0 l/m 1,0 km/h (0 Bft) O-NO 67 0 min 0,4 UV-I -5,0 C 1,6 C 0,0 km/h (0 Bft)
22.03.2013 13:45 -1,3 C 7,4 C 0,1 C 1,6 C 1,6 C 2,9 C 76 % 84 % 76 % 1021,3 hPa 0,0 l/m 0,6 km/h (0 Bft) O-NO 67 0 min 0,4 UV-I -5,0 C 1,6 C 1,9 km/h (1 Bft)
22.03.2013 13:50 -1,3 C 7,4 C 0,1 C 1,4 C 1,4 C 2,7 C 75 % 82 % 71 % 1021,3 hPa 0,0 l/m 1,3 km/h (1 Bft) N-NW 337 0 min 0,3 UV-I -5,1 C 1,4 C 4,3 km/h (1 Bft)
22.03.2013 13:55 -1,3 C 7,4 C 0,1 C 1,1 C 1,1 C 2,4 C 75 % 82 % 63 % 1021,3 hPa 0,0 l/m 2,4 km/h (1 Bft) O 90 0 min 0,4 UV-I -5,1 C 1,1 C 3,2 km/h (1 Bft)
22.03.2013 14:00 -1,3 C 7,4 C 0,2 C 1,0 C 1,0 C 2,3 C 76 % 83 % 61 % 1021,3 hPa 0,0 l/m 1,9 km/h (1 Bft) O-NO 67 0 min 0,4 UV-I -5,0 C 1,0 C 1,6 km/h (1 Bft)
22.03.2013 14:05 -1,3 C 7,4 C 0,1 C 1,0 C 1,0 C 2,3 C 76 % 83 % 61 % 1021,3 hPa 0,0 l/m 1,1 km/h (1 Bft) O 90 0 min 0,3 UV-I -5,0 C 1,0 C 1,8 km/h (1 Bft)
22.03.2013 14:10 -1,3 C 7,4 C 0,0 C 1,0 C 1,0 C 2,3 C 76 % 83 % 61 % 1021,3 hPa 0,0 l/m 1,0 km/h (0 Bft) O-NO 67 0 min 0,3 UV-I -5,0 C 1,0 C 2,1 km/h (1 Bft)
22.03.2013 14:15 -1,3 C 7,4 C 0,2 C 0,9 C 0,9 C 2,2 C 75 % 82 % 58 % 1021,2 hPa 0,0 l/m 1,6 km/h (1 Bft) O-NO 67 0 min 0,3 UV-I -5,1 C 0,9 C 2,9 km/h (1 Bft)
22.03.2013 14:20 -1,3 C 7,4 C 0,1 C 0,7 C 0,7 C 2,0 C 76 % 82 % 53 % 1021,2 hPa 0,0 l/m 1,9 km/h (1 Bft) NO 45 0 min 0,4 UV-I -5,0 C 0,7 C 0,0 km/h (0 Bft)
22.03.2013 14:25 -1,2 C 7,4 C 0,1 C 1,0 C 1,0 C 2,2 C 76 % 82 % 58 % 1021,2 hPa 0,0 l/m 1,4 km/h (1 Bft) N-NO 22 0 min 0,3 UV-I -4,9 C 1,0 C 2,9 km/h (1 Bft)
22.03.2013 14:30 -1,1 C 7,4 C 0,1 C 1,0 C 1,0 C 2,1 C 76 % 82 % 55 % 1021,2 hPa 0,0 l/m 1,0 km/h (0 Bft) O 90 0 min 0,3 UV-I -4,8 C 1,0 C 2,6 km/h (1 Bft)
22.03.2013 14:35 -1,2 C 7,4 C -0,1 C 0,7 C 0,7 C 1,9 C 76 % 82 % 50 % 1020,9 hPa 0,0 l/m 1,4 km/h (1 Bft) N 360 0 min 0,2 UV-I -4,9 C 0,7 C 2,4 km/h (1 Bft)
22.03.2013 14:40 -1,2 C 7,4 C -0,1 C 0,6 C 0,6 C 1,8 C 76 % 82 % 47 % 1020,9 hPa 0,0 l/m 1,1 km/h (1 Bft) SO 135 0 min 0,1 UV-I -4,9 C 0,6 C 2,4 km/h (1 Bft)
22.03.2013 14:45 -1,3 C 7,4 C -0,3 C 0,3 C 0,3 C 1,6 C 76 % 83 % 42 % 1020,9 hPa 0,0 l/m 1,4 km/h (1 Bft) O 90 0 min 0,1 UV-I -5,0 C 0,3 C 3,4 km/h (1 Bft)
22.03.2013 14:50 -1,3 C 7,4 C -0,1 C 0,2 C 0,2 C 1,5 C 76 % 83 % 39 % 1020,9 hPa 0,0 l/m 1,8 km/h (1 Bft) N-NW 337 0 min 0,1 UV-I -5,0 C 0,2 C 1,9 km/h (1 Bft)
22.03.2013 14:55 -1,3 C 7,4 C -0,3 C 0,2 C 0,2 C 1,5 C 77 % 83 % 39 % 1021,2 hPa 0,0 l/m 1,4 km/h (1 Bft) NO 45 0 min 0,1 UV-I -4,8 C 0,2 C 1,9 km/h (1 Bft)
22.03.2013 15:00 -1,3 C 7,4 C -0,3 C 0,1 C 0,1 C 1,4 C 77 % 83 % 37 % 1021,2 hPa 0,0 l/m 1,1 km/h (1 Bft) O-SO 112 0 min 0,1 UV-I -4,8 C 0,1 C 1,6 km/h (1 Bft)
22.03.2013 15:05 -1,1 C 7,4 C -0,3 C 0,1 C 0,1 C 1,2 C 78 % 83 % 32 % 1021,2 hPa 0,0 l/m 1,8 km/h (1 Bft) N-NO 22 0 min 0,1 UV-I -4,4 C 0,1 C 3,4 km/h (1 Bft)
22.03.2013 15:10 -1,3 C 7,5 C -0,3 C 0,1 C 0,1 C 1,4 C 78 % 83 % 37 % 1021,2 hPa 0,0 l/m 2,3 km/h (1 Bft) NW 315 0 min 0,1 UV-I -4,6 C 0,1 C 6,3 km/h (2 Bft)
22.03.2013 15:15 -1,3 C 7,5 C -0,5 C -0,1 C -0,1 C 1,2 C 78 % 83 % 32 % 1021,1 hPa 0,0 l/m 2,3 km/h (1 Bft) NO 45 0 min 0,0 UV-I -4,6 C -0,1 C 0,0 km/h (0 Bft)
22.03.2013 15:20 -1,3 C 7,5 C -0,5 C -0,3 C -0,3 C 1,0 C 78 % 84 % 26 % 1021,1 hPa 0,0 l/m 2,4 km/h (1 Bft) NO 45 0 min 0,0 UV-I -4,6 C -0,3 C 2,3 km/h (1 Bft)
22.03.2013 15:25 -1,3 C 7,5 C -0,6 C -0,4 C -0,4 C 0,9 C 79 % 84 % 24 % 1021,1 hPa 0,0 l/m 1,8 km/h (1 Bft) NO 45 0 min 0,0 UV-I -4,5 C -0,4 C 3,2 km/h (1 Bft)
22.03.2013 15:30 -1,3 C 7,5 C -0,5 C -0,4 C -0,4 C 0,9 C 79 % 84 % 24 % 1021,1 hPa 0,0 l/m 2,1 km/h (1 Bft) O 90 0 min 0,0 UV-I -4,5 C -0,4 C 3,1 km/h (1 Bft)
22.03.2013 15:35 -1,3 C 7,5 C -0,5 C -1,2 C -1,2 C 0,1 C 79 % 83 % 3 % 1021,1 hPa 0,0 l/m 3,4 km/h (1 Bft) O-NO 67 0 min 0,0 UV-I -4,5 C -1,2 C 3,9 km/h (1 Bft)
22.03.2013 15:40 -1,3 C 7,5 C -0,7 C -0,8 C -0,8 C 0,5 C 79 % 84 % 13 % 1021,1 hPa 0,0 l/m 2,6 km/h (1 Bft) O-NO 67 0 min 0,0 UV-I -4,5 C -0,8 C 0,0 km/h (0 Bft)
22.03.2013 15:45 -1,3 C 7,5 C -0,7 C -0,8 C -0,8 C 0,5 C 79 % 84 % 13 % 1021,1 hPa 0,0 l/m 2,4 km/h (1 Bft) O-NO 67 0 min 0,0 UV-I -4,5 C -0,8 C 3,9 km/h (1 Bft)
22.03.2013 15:50 -1,5 C 7,5 C -0,7 C -1,2 C -1,2 C 0,3 C 80 % 84 % 8 % 1021,1 hPa 0,0 l/m 2,9 km/h (1 Bft) O-NO 67 0 min 0,0 UV-I -4,5 C -1,2 C 3,4 km/h (1 Bft)
22.03.2013 15:55 -1,3 C 7,5 C -0,6 C -0,8 C -0,8 C 0,5 C 80 % 84 % 13 % 1021,1 hPa 0,0 l/m 2,6 km/h (1 Bft) O-NO 67 0 min 0,0 UV-I -4,3 C -0,8 C 2,9 km/h (1 Bft)
22.03.2013 16:00 -1,3 C 7,5 C -0,5 C -0,5 C -0,5 C 0,8 C 80 % 84 % 21 % 1021,1 hPa 0,0 l/m 1,9 km/h (1 Bft) O-NO 67 0 min 0,0 UV-I -4,3 C -0,5 C 0,0 km/h (0 Bft)
22.03.2013 16:05 -1,3 C 7,5 C -0,5 C -0,3 C -0,3 C 1,0 C 80 % 84 % 26 % 1021,1 hPa 0,0 l/m 1,6 km/h (1 Bft) O-NO 67 0 min 0,0 UV-I -4,3 C -0,3 C 3,1 km/h (1 Bft)
22.03.2013 16:10 -1,3 C 7,5 C -0,5 C -0,2 C -0,2 C 1,1 C 80 % 84 % 29 % 1021,1 hPa 0,0 l/m 1,8 km/h (1 Bft) N-NO 22 0 min 0,0 UV-I -4,3 C -0,2 C 1,9 km/h (1 Bft)
22.03.2013 16:15 -1,4 C 7,5 C -0,7 C -0,4 C -0,4 C 1,0 C 80 % 84 % 26 % 1021,2 hPa 0,0 l/m 1,6 km/h (1 Bft) O-SO 112 0 min 0,0 UV-I -4,4 C -0,4 C 2,3 km/h (1 Bft)
22.03.2013 16:20 -1,5 C 7,5 C -0,9 C -0,6 C -0,6 C 0,9 C 80 % 84 % 24 % 1021,2 hPa 0,0 l/m 1,8 km/h (1 Bft) SO 135 0 min 0,0 UV-I -4,5 C -0,6 C 1,8 km/h (1 Bft)
22.03.2013 16:25 -1,5 C 7,5 C -1,2 C -1,7 C -2,2 C 0,0 C 81 % 84 % 0 % 1021,2 hPa 0,0 l/m 3,9 km/h (1 Bft) O 90 0 min 0,0 UV-I -4,3 C -2,2 C 4,2 km/h (1 Bft)
22.03.2013 16:30 -1,7 C 7,5 C -1,3 C -2,1 C -2,9 C 0,0 C 81 % 84 % 0 % 1021,2 hPa 0,0 l/m 4,8 km/h (1 Bft) O-NO 67 0 min 0,0 UV-I -4,5 C -4,8 C 6,3 km/h (2 Bft)
22.03.2013 16:35 -1,7 C 7,6 C -1,3 C -2,2 C -3,3 C 0,0 C 81 % 84 % 0 % 1021,2 hPa 0,0 l/m 4,7 km/h (1 Bft) O-SO 112 0 min 0,0 UV-I -4,5 C -5,2 C 4,8 km/h (1 Bft)
22.03.2013 16:40 -1,7 C 7,6 C -1,3 C -2,3 C -3,4 C 0,0 C 82 % 85 % 0 % 1021,2 hPa 0,0 l/m 4,8 km/h (1 Bft) O-NO 67 0 min 0,0 UV-I -4,4 C -5,3 C 3,5 km/h (1 Bft)
22.03.2013 16:45 -1,9 C 7,6 C -1,5 C -2,4 C -3,4 C 0,0 C 82 % 84 % 0 % 1021,2 hPa 0,0 l/m 4,7 km/h (1 Bft) NO 45 0 min 0,0 UV-I -4,6 C -5,3 C 5,8 km/h (2 Bft)
22.03.2013 16:50 -1,9 C 7,6 C -1,5 C -2,4 C -3,4 C 0,0 C 82 % 84 % 0 % 1021,2 hPa 0,0 l/m 4,7 km/h (1 Bft) O-NO 67 0 min 0,0 UV-I -4,6 C -5,3 C 6,1 km/h (2 Bft)
22.03.2013 16:55 -2,0 C 7,6 C -1,6 C -2,6 C -3,9 C 0,0 C 81 % 84 % 0 % 1021,2 hPa 0,0 l/m 5,6 km/h (1 Bft) O-NO 67 0 min 0,0 UV-I -4,8 C -6,3 C 7,1 km/h (2 Bft)
22.03.2013 17:00 -2,0 C 7,6 C -1,6 C -2,6 C -3,8 C 0,0 C 81 % 84 % 0 % 1021,2 hPa 0,0 l/m 5,5 km/h (1 Bft) O-NO 67 0 min 0,0 UV-I -4,8 C -6,2 C 4,8 km/h (1 Bft)
22.03.2013 17:05 -2,0 C 7,6 C -1,6 C -2,6 C -3,9 C 0,0 C 81 % 84 % 0 % 1021,2 hPa 0,0 l/m 5,3 km/h (1 Bft) O 90 0 min 0,0 UV-I -4,8 C -6,2 C 7,4 km/h (2 Bft)
22.03.2013 17:10 -2,0 C 7,6 C -1,5 C -2,6 C -3,9 C 0,0 C 81 % 84 % 0 % 1021,2 hPa 0,0 l/m 5,3 km/h (1 Bft) O-NO 67 0 min 0,0 UV-I -4,8 C -6,2 C 8,7 km/h (2 Bft)
22.03.2013 17:15 -2,0 C 7,6 C -1,6 C -2,6 C -3,7 C 0,0 C 81 % 84 % 0 % 1021,3 hPa 0,0 l/m 4,8 km/h (1 Bft) O-SO 112 0 min 0,0 UV-I -4,8 C -5,7 C 6,6 km/h (2 Bft)
22.03.2013 17:20 -2,0 C 7,6 C -1,7 C -2,6 C -3,7 C 0,0 C 81 % 84 % 0 % 1021,3 hPa 0,0 l/m 5,0 km/h (1 Bft) O-NO 67 0 min 0,0 UV-I -4,8 C -5,8 C 3,4 km/h (1 Bft)
22.03.2013 17:25 -1,9 C 7,6 C -1,7 C -2,4 C -3,4 C 0,0 C 81 % 84 % 0 % 1021,3 hPa 0,0 l/m 4,2 km/h (1 Bft) O-NO 67 0 min 0,0 UV-I -4,7 C -3,4 C 4,0 km/h (1 Bft)
22.03.2013 17:30 -2,0 C 7,6 C -1,7 C -2,4 C -3,1 C 0,0 C 81 % 84 % 0 % 1021,3 hPa 0,0 l/m 3,7 km/h (1 Bft) NO 45 0 min 0,0 UV-I -4,8 C -3,1 C 4,3 km/h (1 Bft)
22.03.2013 17:35 -2,0 C 7,6 C -1,8 C -2,3 C -2,8 C 0,0 C 81 % 85 % 0 % 1021,2 hPa 0,0 l/m 3,2 km/h (1 Bft) O-NO 67 0 min 0,0 UV-I -4,8 C -2,8 C 3,7 km/h (1 Bft)
22.03.2013 17:40 -1,9 C 7,5 C -1,7 C -2,3 C -3,0 C 0,0 C 81 % 85 % 0 % 1021,2 hPa 0,0 l/m 3,4 km/h (1 Bft) O 90 0 min 0,0 UV-I -4,7 C -3,0 C 6,0 km/h (2 Bft)
22.03.2013 17:45 -2,0 C 7,5 C -1,7 C -2,4 C -3,2 C 0,0 C 80 % 84 % 0 % 1021,2 hPa 0,0 l/m 3,7 km/h (1 Bft) O-NO 67 0 min 0,0 UV-I -5,0 C -3,2 C 2,7 km/h (1 Bft)
22.03.2013 17:50 -2,0 C 7,5 C -1,8 C -2,3 C -2,9 C 0,0 C 81 % 85 % 0 % 1021,2 hPa 0,0 l/m 3,2 km/h (1 Bft) O-NO 67 0 min 0,0 UV-I -4,8 C -2,9 C 3,4 km/h (1 Bft)
22.03.2013 17:55 -1,9 C 7,6 C -1,7 C -1,9 C -2,0 C 0,0 C 81 % 85 % 0 % 1021,2 hPa 0,0 l/m 1,9 km/h (1 Bft) O-NO 67 0 min 0,0 UV-I -4,7 C -2,0 C 3,7 km/h (1 Bft)
22.03.2013 18:00 -1,9 C 7,6 C -1,7 C -2,0 C -2,1 C 0,0 C 81 % 85 % 0 % 1021,2 hPa 0,0 l/m 2,1 km/h (1 Bft) O-NO 67 0 min 0,0 UV-I -4,7 C -2,1 C 2,7 km/h (1 Bft)
22.03.2013 18:05 -1,9 C 7,6 C -1,9 C -2,0 C -2,2 C 0,0 C 81 % 85 % 0 % 1021,2 hPa 0,0 l/m 2,4 km/h (1 Bft) O-NO 67 0 min 0,0 UV-I -4,7 C -2,2 C 4,3 km/h (1 Bft)
22.03.2013 18:10 -2,1 C 7,6 C -1,9 C -2,1 C -2,1 C 0,0 C 81 % 85 % 0 % 1021,2 hPa 0,0 l/m 2,3 km/h (1 Bft) O-NO 67 0 min 0,0 UV-I -4,9 C -2,1 C 2,7 km/h (1 Bft)
22.03.2013 18:15 -2,1 C 7,6 C -1,9 C -2,4 C -2,9 C 0,0 C 81 % 85 % 0 % 1021,2 hPa 0,0 l/m 3,1 km/h (1 Bft) O-NO 67 0 min 0,0 UV-I -4,9 C -2,9 C 3,2 km/h (1 Bft)
22.03.2013 18:20 -2,1 C 7,6 C -2,1 C -2,4 C -2,9 C 0,0 C 81 % 85 % 0 % 1021,2 hPa 0,0 l/m 3,1 km/h (1 Bft) O-NO 67 0 min 0,0 UV-I -4,9 C -2,9 C 3,5 km/h (1 Bft)
22.03.2013 18:25 -2,1 C 7,6 C -2,1 C -2,5 C -3,2 C 0,0 C 82 % 85 % 0 % 1021,2 hPa 0,0 l/m 3,2 km/h (1 Bft) O-NO 67 0 min 0,0 UV-I -4,7 C -3,2 C 4,0 km/h (1 Bft)
22.03.2013 18:30 -2,1 C 7,6 C -2,3 C -2,5 C -3,3 C 0,0 C 82 % 85 % 0 % 1021,2 hPa 0,0 l/m 3,2 km/h (1 Bft) O-NO 67 0 min 0,0 UV-I -4,7 C -3,3 C 3,4 km/h (1 Bft)
22.03.2013 18:35 -2,3 C 7,6 C -2,3 C -2,7 C -3,6 C 0,0 C 82 % 85 % 0 % 1021,2 hPa 0,0 l/m 3,2 km/h (1 Bft) O-NO 67 0 min 0,0 UV-I -4,9 C -3,6 C 2,7 km/h (1 Bft)
22.03.2013 18:41 -2,3 C 7,6 C -2,3 C -2,8 C -3,7 C 0,0 C 82 % 85 % 0 % 1021,2 hPa 0,0 l/m 3,4 km/h (1 Bft) N 0 0 min 0,0 UV-I -4,9 C -3,7 C 2,7 km/h (1 Bft)
22.03.2013 19:00 -2,3 C 7,5 C -2,3 C -2,6 C -3,2 C 0,0 C 81 % 85 % 0 % 1021,9 hPa 0,0 l/m 2,6 km/h (1 Bft) O-NO 67 0 min 0,0 UV-I -5,1 C -3,2 C 2,4 km/h (1 Bft)
22.03.2013 19:05 -2,4 C 7,6 C -2,4 C -2,7 C -3,3 C 0,0 C 82 % 86 % 0 % 1021,9 hPa 0,0 l/m 2,6 km/h (1 Bft) O-NO 67 0 min 0,0 UV-I -5,0 C -3,3 C 5,3 km/h (1 Bft)
22.03.2013 19:10 -2,4 C 7,6 C -2,5 C -2,8 C -3,6 C 0,0 C 82 % 86 % 0 % 1021,9 hPa 0,0 l/m 2,9 km/h (1 Bft) O 90 0 min 0,0 UV-I -5,0 C -3,6 C 4,3 km/h (1 Bft)
22.03.2013 19:15 -2,5 C 7,6 C -2,5 C -3,0 C -4,1 C 0,0 C 83 % 86 % 0 % 1021,4 hPa 0,0 l/m 3,5 km/h (1 Bft) S-SW 202 0 min 0,0 UV-I -5,0 C -4,1 C 3,4 km/h (1 Bft)
22.03.2013 19:20 -2,5 C 7,6 C -2,6 C -3,0 C -4,1 C 0,0 C 83 % 86 % 0 % 1021,4 hPa 0,0 l/m 3,4 km/h (1 Bft) O-SO 112 0 min 0,0 UV-I -5,0 C -4,1 C 4,5 km/h (1 Bft)
22.03.2013 19:25 -2,5 C 7,6 C -2,5 C -3,1 C -4,3 C 0,0 C 83 % 86 % 0 % 1021,4 hPa 0,0 l/m 3,5 km/h (1 Bft) O-NO 67 0 min 0,0 UV-I -5,0 C -4,3 C 4,7 km/h (1 Bft)
22.03.2013 19:30 -2,5 C 7,6 C -2,7 C -3,2 C -4,6 C 0,0 C 83 % 87 % 0 % 1021,4 hPa 0,0 l/m 3,9 km/h (1 Bft) O-NO 67 0 min 0,0 UV-I -5,0 C -4,6 C 3,5 km/h (1 Bft)
22.03.2013 19:35 -2,7 C 7,6 C -2,8 C -3,3 C -4,6 C 0,0 C 83 % 87 % 0 % 1021,8 hPa 0,0 l/m 3,9 km/h (1 Bft) O-NO 67 0 min 0,0 UV-I -5,2 C -4,6 C 4,8 km/h (1 Bft)
22.03.2013 19:40 -2,7 C 7,6 C -2,7 C -3,3 C -4,6 C 0,0 C 84 % 87 % 0 % 1021,8 hPa 0,0 l/m 3,9 km/h (1 Bft) O-NO 67 0 min 0,0 UV-I -5,0 C -4,6 C 3,1 km/h (1 Bft)
22.03.2013 19:45 -2,8 C 7,6 C -2,7 C -3,3 C -4,4 C 0,0 C 84 % 87 % 0 % 1021,8 hPa 0,0 l/m 3,5 km/h (1 Bft) O-NO 67 0 min 0,0 UV-I -5,1 C -4,4 C 2,7 km/h (1 Bft)
22.03.2013 19:50 -2,8 C 7,7 C -2,8 C -3,2 C -4,1 C 0,0 C 84 % 87 % 0 % 1021,8 hPa 0,0 l/m 3,1 km/h (1 Bft) NO 45 0 min 0,0 UV-I -5,1 C -4,1 C 3,4 km/h (1 Bft)
22.03.2013 19:55 -2,8 C 7,7 C -2,9 C -3,0 C -3,5 C 0,0 C 84 % 87 % 0 % 1021,8 hPa 0,0 l/m 2,3 km/h (1 Bft) O-NO 67 0 min 0,0 UV-I -5,1 C -3,5 C 1,8 km/h (1 Bft)
22.03.2013 20:00 -2,8 C 7,7 C -2,9 C -3,2 C -4,1 C 0,0 C 84 % 87 % 0 % 1021,8 hPa 0,0 l/m 2,6 km/h (1 Bft) O-NO 67 0 min 0,0 UV-I -5,1 C -4,1 C 4,0 km/h (1 Bft)
22.03.2013 20:05 -2,9 C 7,7 C -2,9 C -3,5 C -4,7 C 0,0 C 84 % 87 % 0 % 1021,8 hPa 0,0 l/m 3,4 km/h (1 Bft) O-NO 67 0 min 0,0 UV-I -5,2 C -4,7 C 4,2 km/h (1 Bft)
22.03.2013 20:10 -2,9 C 7,7 C -3,0 C -3,6 C -5,0 C 0,0 C 85 % 87 % 0 % 1021,8 hPa 0,0 l/m 3,7 km/h (1 Bft) O-NO 67 0 min 0,0 UV-I -5,1 C -5,0 C 3,7 km/h (1 Bft)
22.03.2013 20:15 -2,9 C 7,7 C -3,0 C -3,7 C -5,3 C 0,0 C 85 % 88 % 0 % 1021,8 hPa 0,0 l/m 4,2 km/h (1 Bft) O 90 0 min 0,0 UV-I -5,1 C -5,3 C 6,0 km/h (2 Bft)
22.03.2013 20:20 -2,9 C 7,7 C -2,9 C -3,8 C -5,7 C 0,0 C 86 % 88 % 0 % 1021,8 hPa 0,0 l/m 4,7 km/h (1 Bft) O-NO 67 0 min 0,0 UV-I -4,9 C -7,9 C 5,8 km/h (2 Bft)
22.03.2013 20:25 -2,9 C 7,7 C -2,9 C -3,8 C -5,5 C 0,0 C 86 % 88 % 0 % 1021,8 hPa 0,0 l/m 4,7 km/h (1 Bft) O-NO 67 0 min 0,0 UV-I -4,9 C -7,7 C 3,4 km/h (1 Bft)
22.03.2013 20:30 -2,9 C 7,7 C -2,9 C -3,7 C -5,2 C 0,0 C 86 % 88 % 0 % 1021,8 hPa 0,0 l/m 4,2 km/h (1 Bft) O-NO 67 0 min 0,0 UV-I -4,9 C -5,2 C 3,5 km/h (1 Bft)
22.03.2013 20:35 -2,9 C 7,7 C -2,8 C -3,4 C -4,3 C 0,0 C 86 % 88 % 0 % 1022,1 hPa 0,0 l/m 3,2 km/h (1 Bft) O-NO 67 0 min 0,0 UV-I -4,9 C -4,3 C 4,7 km/h (1 Bft)
22.03.2013 20:40 -2,7 C 7,7 C -2,7 C -3,2 C -4,1 C 0,0 C 87 % 88 % 0 % 1022,1 hPa 0,0 l/m 3,2 km/h (1 Bft) NO 45 0 min 0,0 UV-I -4,6 C -4,1 C 3,4 km/h (1 Bft)
22.03.2013 20:45 -2,7 C 7,7 C -2,5 C -3,1 C -3,9 C 0,0 C 87 % 88 % 0 % 1022,1 hPa 0,0 l/m 3,2 km/h (1 Bft) O 90 0 min 0,0 UV-I -4,6 C -3,9 C 2,9 km/h (1 Bft)
22.03.2013 20:50 -2,7 C 7,7 C -2,5 C -3,1 C -3,8 C 0,0 C 87 % 88 % 0 % 1022,1 hPa 0,0 l/m 3,2 km/h (1 Bft) SW 225 0 min 0,0 UV-I -4,6 C -3,8 C 5,3 km/h (1 Bft)
22.03.2013 20:55 -2,5 C 7,7 C -2,5 C -3,0 C -4,1 C 0,0 C 87 % 88 % 0 % 1021,4 hPa 0,0 l/m 3,7 km/h (1 Bft) O 90 0 min 0,0 UV-I -4,4 C -4,1 C 5,8 km/h (2 Bft)
22.03.2013 21:00 -2,5 C 7,7 C -2,5 C -3,1 C -4,3 C 0,0 C 87 % 88 % 0 % 1021,4 hPa 0,0 l/m 4,2 km/h (1 Bft) O-NO 67 0 min 0,0 UV-I -4,4 C -4,3 C 3,2 km/h (1 Bft)
22.03.2013 21:05 -2,6 C 7,7 C -2,5 C -3,3 C -4,7 C 0,0 C 87 % 88 % 0 % 1021,4 hPa 0,0 l/m 4,8 km/h (1 Bft) O-NO 67 0 min 0,0 UV-I -4,5 C -6,8 C 6,0 km/h (2 Bft)
22.03.2013 21:10 -2,5 C 7,7 C -2,5 C -3,3 C -4,8 C 0,0 C 87 % 88 % 0 % 1021,4 hPa 0,0 l/m 5,1 km/h (1 Bft) O-NO 67 0 min 0,0 UV-I -4,4 C -7,1 C 6,8 km/h (2 Bft)
22.03.2013 21:15 -2,7 C 7,7 C -2,5 C -3,4 C -4,9 C 0,0 C 87 % 88 % 0 % 1021,4 hPa 0,0 l/m 5,1 km/h (1 Bft) O 90 0 min 0,0 UV-I -4,6 C -7,2 C 5,1 km/h (1 Bft)
22.03.2013 21:20 -2,7 C 7,7 C -2,5 C -3,4 C -4,9 C 0,0 C 87 % 88 % 0 % 1021,4 hPa 0,0 l/m 5,0 km/h (1 Bft) O-NO 67 0 min 0,0 UV-I -4,6 C -7,1 C 7,1 km/h (2 Bft)
22.03.2013 21:25 -2,7 C 7,7 C -2,5 C -3,3 C -4,5 C 0,0 C 87 % 88 % 0 % 1021,4 hPa 0,0 l/m 4,3 km/h (1 Bft) O-NO 67 0 min 0,0 UV-I -4,6 C -4,5 C 5,3 km/h (1 Bft)
22.03.2013 21:30 -2,7 C 7,7 C -2,5 C -3,3 C -4,5 C 0,0 C 86 % 88 % 0 % 1021,4 hPa 0,0 l/m 4,3 km/h (1 Bft) O-NO 67 0 min 0,0 UV-I -4,7 C -4,5 C 5,8 km/h (2 Bft)
22.03.2013 21:35 -2,8 C 7,7 C -2,6 C -3,3 C -4,4 C 0,0 C 86 % 88 % 0 % 1021,7 hPa 0,0 l/m 4,2 km/h (1 Bft) O-NO 67 0 min 0,0 UV-I -4,8 C -4,4 C 3,9 km/h (1 Bft)
22.03.2013 21:40 -2,8 C 7,7 C -2,5 C -3,3 C -4,4 C 0,0 C 87 % 88 % 0 % 1021,7 hPa 0,0 l/m 4,2 km/h (1 Bft) O-NO 67 0 min 0,0 UV-I -4,7 C -4,4 C 3,5 km/h (1 Bft)
22.03.2013 21:45 -2,8 C 7,7 C -2,5 C -3,2 C -4,1 C 0,0 C 87 % 88 % 0 % 1021,7 hPa 0,0 l/m 3,7 km/h (1 Bft) O 90 0 min 0,0 UV-I -4,7 C -4,1 C 3,2 km/h (1 Bft)
22.03.2013 21:50 -2,8 C 7,7 C -2,6 C -3,2 C -3,9 C 0,0 C 87 % 88 % 0 % 1021,7 hPa 0,0 l/m 3,4 km/h (1 Bft) O-NO 67 0 min 0,0 UV-I -4,7 C -3,9 C 3,1 km/h (1 Bft)
22.03.2013 21:55 -2,8 C 7,7 C -2,5 C -3,2 C -4,0 C 0,0 C 87 % 88 % 0 % 1021,9 hPa 0,0 l/m 3,4 km/h (1 Bft) O-SO 112 0 min 0,0 UV-I -4,7 C -4,0 C 7,7 km/h (2 Bft)
22.03.2013 22:00 -2,8 C 7,7 C -2,5 C -3,3 C -4,2 C 0,0 C 87 % 88 % 0 % 1021,9 hPa 0,0 l/m 3,7 km/h (1 Bft) O-NO 67 0 min 0,0 UV-I -4,7 C -4,2 C 3,5 km/h (1 Bft)
22.03.2013 22:05 -2,8 C 7,7 C -2,5 C -3,3 C -4,3 C 0,0 C 87 % 88 % 0 % 1021,9 hPa 0,0 l/m 4,0 km/h (1 Bft) O-NO 67 0 min 0,0 UV-I -4,7 C -4,3 C 4,2 km/h (1 Bft)
22.03.2013 22:10 -2,8 C 7,7 C -2,5 C -3,3 C -4,4 C 0,0 C 87 % 88 % 0 % 1021,9 hPa 0,0 l/m 4,2 km/h (1 Bft) NO 45 0 min 0,0 UV-I -4,7 C -4,4 C 5,1 km/h (1 Bft)
22.03.2013 22:15 -2,8 C 7,7 C -2,5 C -3,6 C -5,2 C 0,0 C 86 % 88 % 0 % 1021,3 hPa 0,0 l/m 5,6 km/h (1 Bft) O-NO 67 0 min 0,0 UV-I -4,8 C -7,8 C 12,4 km/h (3 Bft)
22.03.2013 22:20 -2,8 C 7,7 C -2,5 C -3,6 C -5,2 C 0,0 C 86 % 87 % 0 % 1021,3 hPa 0,0 l/m 5,6 km/h (1 Bft) O-NO 67 0 min 0,0 UV-I -4,8 C -7,8 C 5,1 km/h (1 Bft)
22.03.2013 22:25 -2,8 C 7,6 C -2,5 C -3,6 C -5,2 C 0,0 C 86 % 87 % 0 % 1021,3 hPa 0,0 l/m 5,6 km/h (1 Bft) O-NO 67 0 min 0,0 UV-I -4,8 C -7,8 C 6,9 km/h (2 Bft)
22.03.2013 22:30 -2,9 C 7,6 C -2,7 C -3,7 C -5,4 C 0,0 C 85 % 87 % 0 % 1021,3 hPa 0,0 l/m 6,1 km/h (2 Bft) O 90 0 min 0,0 UV-I -5,1 C -8,3 C 6,8 km/h (2 Bft)
22.03.2013 22:35 -2,9 C 7,6 C -2,7 C -3,9 C -5,8 C 0,0 C 85 % 87 % 0 % 1021,3 hPa 0,0 l/m 6,6 km/h (2 Bft) O-NO 67 0 min 0,0 UV-I -5,1 C -9,0 C 9,5 km/h (2 Bft)
22.03.2013 22:40 -2,9 C 7,6 C -2,7 C -3,8 C -5,6 C 0,0 C 85 % 87 % 0 % 1021,3 hPa 0,0 l/m 6,3 km/h (2 Bft) NO 45 0 min 0,0 UV-I -5,1 C -8,6 C 4,3 km/h (1 Bft)
22.03.2013 22:45 -2,9 C 7,6 C -2,7 C -3,7 C -5,3 C 0,0 C 85 % 87 % 0 % 1021,3 hPa 0,0 l/m 5,6 km/h (1 Bft) O 90 0 min 0,0 UV-I -5,1 C -7,9 C 7,7 km/h (2 Bft)
22.03.2013 22:50 -2,9 C 7,6 C -2,8 C -3,7 C -5,4 C 0,0 C 85 % 87 % 0 % 1021,3 hPa 0,0 l/m 5,6 km/h (1 Bft) NO 45 0 min 0,0 UV-I -5,1 C -8,0 C 8,5 km/h (2 Bft)
22.03.2013 22:55 -3,1 C 7,6 C -2,9 C -3,7 C -6,4 C 0,0 C 84 % 87 % 0 % 1021,9 hPa 0,0 l/m 7,7 km/h (2 Bft) O-NO 67 0 min 0,0 UV-I -5,4 C -10,1 C 15,3 km/h (3 Bft)
22.03.2013 23:00 -3,1 C 7,6 C -2,9 C -4,2 C -6,4 C 0,0 C 84 % 87 % 0 % 1021,9 hPa 0,0 l/m 7,6 km/h (2 Bft) O-NO 67 0 min 0,0 UV-I -5,4 C -10,1 C 5,6 km/h (1 Bft)
22.03.2013 23:05 -3,3 C 7,6 C -3,1 C -4,3 C -6,3 C 0,0 C 84 % 86 % 0 % 1021,9 hPa 0,0 l/m 6,4 km/h (2 Bft) O-NO 67 0 min 0,0 UV-I -5,6 C -9,5 C 8,2 km/h (2 Bft)
22.03.2013 23:10 -3,3 C 7,6 C -3,1 C -4,3 C -6,2 C 0,0 C 84 % 86 % 0 % 1021,9 hPa 0,0 l/m 6,0 km/h (2 Bft) O-NO 67 0 min 0,0 UV-I -5,6 C -9,2 C 6,6 km/h (2 Bft)
22.03.2013 23:15 -3,5 C 7,6 C -3,3 C -4,5 C -6,4 C 0,0 C 84 % 86 % 0 % 1021,5 hPa 0,0 l/m 6,1 km/h (2 Bft) O-NO 67 0 min 0,0 UV-I -5,8 C -9,4 C 9,0 km/h (2 Bft)
22.03.2013 23:20 -3,5 C 7,6 C -3,4 C -4,5 C -6,5 C 0,0 C 84 % 86 % 0 % 1021,5 hPa 0,0 l/m 6,3 km/h (2 Bft) O-NO 67 0 min 0,0 UV-I -5,8 C -9,6 C 7,1 km/h (2 Bft)
22.03.2013 23:25 -3,6 C 7,6 C -3,3 C -4,6 C -6,7 C 0,0 C 84 % 86 % 0 % 1021,5 hPa 0,0 l/m 6,6 km/h (2 Bft) O-NO 67 0 min 0,0 UV-I -5,9 C -10,0 C 7,1 km/h (2 Bft)
22.03.2013 23:30 -3,6 C 7,6 C -3,3 C -4,6 C -6,7 C 0,0 C 84 % 86 % 0 % 1021,5 hPa 0,0 l/m 6,6 km/h (2 Bft) NO 45 0 min 0,0 UV-I -5,9 C -10,0 C 8,5 km/h (2 Bft)
22.03.2013 23:35 -3,7 C 7,6 C -3,5 C -4,8 C -6,9 C 0,0 C 84 % 86 % 0 % 1021,7 hPa 0,0 l/m 7,2 km/h (2 Bft) O-NO 67 0 min 0,0 UV-I -6,0 C -10,5 C 6,1 km/h (2 Bft)
22.03.2013 23:40 -3,7 C 7,6 C -3,5 C -4,9 C -7,2 C 0,0 C 84 % 86 % 0 % 1021,7 hPa 0,0 l/m 7,6 km/h (2 Bft) O-NO 67 0 min 0,0 UV-I -6,0 C -11,0 C 6,4 km/h (2 Bft)
22.03.2013 23:45 -3,7 C 7,6 C -3,6 C -4,9 C -7,2 C 0,0 C 84 % 86 % 0 % 1021,7 hPa 0,0 l/m 7,4 km/h (2 Bft) O-NO 67 0 min 0,0 UV-I -6,0 C -10,9 C 8,7 km/h (2 Bft)
22.03.2013 23:50 -3,7 C 7,6 C -3,6 C -4,9 C -7,2 C 0,0 C 84 % 86 % 0 % 1021,7 hPa 0,0 l/m 7,2 km/h (2 Bft) O-NO 67 0 min 0,0 UV-I -6,0 C -10,9 C 7,9 km/h (2 Bft)
22.03.2013 23:55 -3,7 C 7,6 C -3,6 C -4,7 C -6,8 C 0,0 C 84 % 86 % 0 % 1022,0 hPa 0,0 l/m 6,6 km/h (2 Bft) O-NO 67 0 min 0,0 UV-I -6,0 C -10,1 C 10,0 km/h (2 Bft)
_ Min-Zeit 23:35 10:50 23:45 23:40 23:40 04:40 13:25 13:50 00:00 00:00 - 00:00 - - - 00:00 23:35 23:40 00:00
Minimum _ -3,7 C 7,4 C -3,6 C -4,9 C -7,2 C 0,0 C 75 % 82 % 0 % 1020,0 hPa - 0,0 km/h (0 Bft) - - - 0,0 UV-I -6,0 C -11,0 C 0,0 km/h (0 Bft)
_ Max-Zeit 13:20 00:00 13:20 13:20 13:20 13:20 00:00 00:00 13:20 10:15 00:00 22:55 - - 13:15 13:20 13:20 13:20 22:55
Maximum _ -0,6 C 7,9 C 1,3 C 3,6 C 3,6 C 4,2 C 90 % 92 % 100 % 1022,1 hPa 0,0 l/m 7,7 km/h
O-NO (2 Bft)
- - 5 min 1,1 UV-I -3,8 C 3,6 C 15,3 km/h
O-NO (3 Bft)
Durchschnitt _ -2,5 C 7,6 C -1,6 C -2,0 C -2,4 C 0,7 C 83 % 88 % 17 % 1021,2 hPa #0,0 l/m 2,3 km/h (1 Bft) O-NO - #20 min. 0,4 UV-I -5,0 C -2,8 C 2,9 km/h (1 Bft)
2013 www.wetterstation-wechselburg.de